Location: *
(42.4431°N, 0.7455°E)
Time: 07:27:37
(UTC+00:00)

Daily predictions for brighter satellites

Satellite Brightness Start Highest point End
(mag) Time Altitude Azimuth Time Altitude Azimuth Time Altitude Azimuth
Cosmos 1980 4.5 16:49:45 10° SW 16:55:14 52° WNW 17:00:47 10° NNE
BREEZE-M R/B 4.1 16:49:49 10° WNW 16:55:46 35° N 16:59:04 10° ENE
NOAA 6 4.5 16:51:18 10° S 16:56:23 69° WSW 17:01:30 10° NNW
Cosmos 1441 Rocket 3.5 16:59:34 10° N 17:03:12 42° ENE 17:06:45 10° SSE
H-2A R/B 3.0 17:00:42 10° SE 17:04:11 43° ENE 17:07:41 10° N
SMAP 3.2 17:01:06 10° SSE 17:05:37 55° ENE 17:10:11 10° N
Genesis I 3.4 17:04:37 10° NW 17:08:30 75° WSW 17:12:18 10° SSE
Okean O Rocket 2.8 17:04:35 10° S 17:08:46 47° W 17:12:59 10° NNW
Okean 1-7 3.2 17:05:42 10° S 17:09:54 51° E 17:14:10 10° NNE
Cosmos 2297 3.7 17:04:32 10° NNW 17:10:14 68° ENE 17:15:50 10° SSE
COBE Rocket 3.8 17:06:56 10° NNE 17:11:35 62° E 17:16:17 10° S
CZ-4 R/B 2.9 17:10:58 10° E 17:13:13 15° ENE 17:15:28 10° NNE
Cosmos 1666 2.6 17:10:23 10° N 17:14:08 88° E 17:17:51 10° S
Cosmos 1867 3.8 17:09:57 10° NNW 17:15:16 50° NE 17:20:31 10° SE
BREEZE-M DEB (TANK) 2.6 17:10:46 10° WNW 17:16:03 53° N 17:18:32 13° ENE
YAOGAN 6 3.9 17:13:50 10° ESE 17:16:26 19° ENE 17:19:05 10° NNE
USA 215 3.4 17:10:38 10° NE 17:17:11 78° NW 17:23:42 10° WSW
Abrixas rocket 2.1 17:14:20 10° SW 17:17:19 61° SSE 17:19:38 15° ENE
Cosmos 2242 Rocket 4.2 17:13:09 10° SSW 17:17:40 63° W 17:22:14 10° N
Cosmos 1908 Rocket 3.6 17:13:37 10° N 17:18:01 86° WSW 17:22:21 10° S
ALOS 4.5 17:14:39 10° SSW 17:18:43 29° W 17:22:48 10° NW
Cosmos 614 Rocket 3.9 17:15:00 10° SSW 17:20:04 81° ESE 17:25:10 10° NNE
Cosmos 1092 Rocket 4.0 17:15:01 10° S 17:21:20 88° E 17:27:35 10° N
IRS-1C Rocket 4.1 17:16:31 10° SSE 17:21:48 87° ENE 17:27:06 10° NNW
Cosmos 1190 Rocket 4.0 17:17:36 10° S 17:22:46 71° ESE 17:27:56 10° NNE
Cosmos 1975 3.6 17:21:53 10° NNE 17:25:25 30° ENE 17:28:59 10° SE
Cosmos 676 Rocket 4.4 17:20:57 10° S 17:25:49 44° ESE 17:30:44 10° NNE
STARLINK-48 3.8 17:22:48 10° SSW 17:26:34 50° SE 17:29:17 17° ENE
COSMO-SKYMED 1 3.4 17:23:46 10° NE 17:27:35 29° E 17:31:22 10° SSE
YAOGAN 1 3.8 17:25:35 10° ESE 17:28:43 20° ENE 17:31:52 10° NNE
Cosmos 1954 Rocket 4.3 17:26:16 10° S 17:31:10 46° ESE 17:36:02 11° NNE
Okean 3 4.2 17:32:21 10° SSE 17:35:58 30° E 17:38:35 16° NE
Okean-O 2.6 17:31:46 10° SSE 17:36:07 61° ENE 17:40:30 10° N
Cosmos 921 Rocket 3.2 17:32:16 10° NNW 17:36:35 75° WSW 17:40:57 10° S
NOSS 7 (E) 4.4 17:34:47 10° SSW 17:38:34 64° SE 17:40:25 23° NE
Cosmos 1943 4.1 17:35:31 10° SSE 17:40:12 28° ESE 17:42:49 19° ENE
Cosmos 1140 Rocket 3.5 17:43:42 10° SSW 17:48:49 86° WNW 17:54:00 10° NNE
USA 267 3.2 17:43:44 10° ESE 17:50:14 72° NE 17:56:46 10° NW
Cosmos 2369 Rocket 2.4 17:48:12 10° NNW 17:53:36 45° ENE 17:59:01 10° SE
NOSS 3-1 (C) 4.3 17:46:40 10° NNW 17:53:46 44° NE 18:01:10 12° ESE
Cosmos 1743 2.9 17:51:03 10° NNW 17:54:55 74° W 17:58:47 10° S
STARLINK-43 4.2 17:51:32 10° W 17:55:05 41° NNW 17:56:47 25° NNE
Envisat 3.0 17:51:22 10° SSE 17:56:27 90° NE 18:01:34 10° NNW
S3M 4.0 17:52:35 10° N 17:58:40 55° ENE 18:04:38 10° SSE
Cosmos 2266 Rocket 4.4 17:53:32 10° SSE 17:59:26 41° E 18:05:19 10° NNE
SL-16 R/B 3.2 17:54:40 10° SW 18:00:06 45° WNW 18:05:34 10° NNE
Meteor 1-18 Rocket 4.3 17:55:08 10° SSW 18:00:49 80° W 18:06:27 10° N
STARLINK-61 4.0 17:58:20 10° SSW 18:02:09 44° SE 18:03:06 37° E
Cosmos 1461 3.7 18:00:55 10° S 18:04:07 29° ESE 18:04:07 29° ESE
Cosmos 2151 Rocket 3.7 18:00:32 10° N 18:04:47 46° ENE 18:09:00 10° SSE
USA 229 DEB 4.0 17:58:15 10° NNW 18:05:16 50° NE 18:10:45 18° ESE
USA 229 4.0 17:58:21 10° NNW 18:05:21 49° NE 18:10:44 19° ESE
STARLINK-67 4.5 18:02:57 10° NW 18:04:17 21° NNW 18:04:17 21° NNW
Cosmos 1603 3.7 18:01:47 10° S 18:07:24 63° ESE 18:10:51 24° NE
Cosmos 1553 Rocket 4.0 18:02:20 10° N 18:08:47 87° E 18:15:12 10° S
STARLINK-71 4.4 18:06:05 10° SSW 18:09:42 33° SE 18:09:56 33° SE
STARLINK-26 3.7 18:07:04 10° SSW 18:10:24 42° SE 18:10:27 42° SE
NOSS 3-1 (A) 4.5 18:03:45 10° NNW 18:10:41 40° NE 18:14:14 28° E
STARLINK-79 4.5 18:07:38 10° SSW 18:11:11 31° SE 18:11:15 31° SE
Cosmos 1943 Rocket 2.0 18:06:26 10° NNW 18:12:05 75° ENE 18:17:38 10° SSE
STARLINK-78 4.4 18:09:15 10° SSW 18:12:51 32° SE 18:12:52 32° SE
STARLINK-57 4.3 18:10:55 10° SSW 18:14:34 35° SE 18:14:35 35° SE
NOAA 15 4.5 18:09:28 10° SSE 18:14:39 65° ENE 18:19:51 10° N
FengYun 1-2 T 4.2 18:09:12 10° SSE 18:14:42 88° WSW 18:20:15 10° NNW
Lacrosse 5 rocket 3.8 18:14:20 10° NNW 18:14:56 10° N 18:15:14 10° N
Uosat 12 SS-18 rocket 3.9 18:10:35 10° NNW 18:15:15 78° NE 18:17:43 25° SE
Cosmos 1850 Rocket 4.2 18:10:42 10° S 18:15:42 47° ESE 18:16:59 39° ENE
SKYMED 2 3.6 18:12:12 15° N 18:15:49 82° WNW 18:20:09 10° SSW
STARLINK-49 4.4 18:12:18 10° SSW 18:15:51 34° SE 18:15:51 34° SE
STARLINK-27 4.3 18:14:05 10° SSW 18:17:37 35° SE 18:17:37 35° SE
STARLINK-74 4.3 18:15:42 10° SSW 18:19:12 36° SE 18:19:12 36° SE
STARLINK-80 4.1 18:15:47 10° WSW 18:19:27 46° NNW 18:20:09 40° N
SL-4 R/B 2.9 18:16:11 10° NW 18:19:21 33° N 18:19:21 33° N
CZ-4C R/B 2.0 18:15:50 10° SSW 18:20:42 67° ESE 18:22:33 41° NE
STARLINK-39 4.3 18:17:21 10° SSW 18:20:49 37° SE 18:20:49 37° SE
IRIDIUM 106 4.2 18:16:03 10° S 18:21:11 63° E 18:25:24 16° NNE
STARLINK 4.2 18:18:57 10° SSW 18:22:24 38° SSE 18:22:24 38° SSE
STARLINK-42 4.1 18:20:30 10° SSW 18:24:00 42° SSE 18:24:00 42° SSE
Lacrosse 5 1.8 18:20:49 10° SW 18:25:54 89° NW 18:27:22 48° NE
STARLINK-21 4.2 18:22:14 10° SSW 18:25:36 41° SSE 18:25:36 41° SSE
CSL-04 Rocket 3.5 18:20:49 10° SSE 18:26:04 75° ENE 18:31:23 10° N
STARLINK-45 4.0 18:23:59 10° SSW 18:27:29 47° SSE 18:27:29 47° SSE
Cosmos 405 Rocket 2.7 18:24:51 10° NNW 18:28:34 74° W 18:32:16 10° S
STARLINK-75 3.9 18:25:42 10° SW 18:29:13 51° SSE 18:29:13 51° SSE
STARLINK-76 4.2 18:27:07 10° SSW 18:30:23 43° SSE 18:30:23 43° SSE
Okean 2 Rocket 3.7 18:26:45 10° NNW 18:31:11 58° W 18:35:35 10° S
CZ-3B R/B 3.8 18:29:53 10° S 18:32:12 13° SSE 18:33:02 13° SSE
Meteor 2-4 Rocket 3.7 18:26:29 10° S 18:32:22 89° W 18:37:11 15° N
STARLINK 4.2 18:28:44 10° SSW 18:31:58 43° SSE 18:31:58 43° SSE
USA 116 4.3 18:30:02 22° NNE 18:33:31 88° WNW 18:38:19 10° SSW
Cosmos 2084 Rocket 3.9 18:29:56 10° SSW 18:33:34 49° SSE 18:33:34 49° SSE
STARLINK-32 4.2 18:30:22 10° SSW 18:33:34 44° S 18:33:34 44° S
STARLINK-40 4.2 18:32:00 10° SW 18:35:08 44° S 18:35:08 44° S
STARLINK-44 4.2 18:33:38 10° SW 18:36:43 44° S 18:36:43 44° S
STARLINK-37 4.2 18:35:22 10° SW 18:38:28 47° S 18:38:28 47° S
STARLINK-36 4.3 18:36:45 10° SW 18:39:46 44° S 18:39:46 44° S
STARLINK-41 4.4 18:38:31 10° SW 18:41:27 43° SSW 18:41:27 43° SSW
Gbstr 26 Del rocket 3.9 18:36:25 10° SW 18:43:38 88° NW 18:45:06 56° NE
STARLINK-64 4.4 18:40:10 10° SW 18:43:03 43° SSW 18:43:03 43° SSW
Cosmos 883 Rocket 4.3 18:39:04 10° N 18:45:25 77° E 18:51:39 10° SSE
STARLINK-35 4.4 18:41:37 10° SW 18:44:29 43° SSW 18:44:29 43° SSW
STARLINK-51 4.5 18:43:28 10° SW 18:46:17 42° SSW 18:46:17 42° SSW
Cosmos 2315 Rocket 3.9 18:41:32 10° N 18:47:49 64° E 18:54:01 10° SSE
CZ-4 R/B 2.5 18:44:15 10° S 18:47:55 41° W 18:51:35 10° NNW
Cosmos 2344 4.4 18:39:01 10° NNW 18:48:45 66° NE 18:58:09 22° SE
CSL-04 Debris 4.4 18:43:54 10° S 18:49:19 69° WSW 18:54:45 10° NNW
Meteor 2-8 Rocket 4.2 18:45:42 10° N 18:51:46 75° E 18:57:49 10° SSE
Cosmos 1674 Rocket 3.9 18:49:42 10° SSW 18:53:35 63° SW 18:53:35 63° SW
USA 215 4.4 18:57:28 27° NNE 18:59:37 33° NNW 19:05:18 10° W
Cosmos 2263 4.3 18:56:23 10° NNW 19:02:11 73° WSW 19:04:36 36° S
YAOGAN 1 3.9 19:00:30 10° SSW 19:04:33 39° W 19:08:37 10° NNW
Cosmos 1943 4.1 19:18:39 10° SW 19:24:00 43° WNW 19:24:41 42° NW
Cosmos 2369 Rocket 4.1 19:32:44 10° NW 19:37:21 27° WSW 19:42:00 10° SSW
NOSS 3-1 (A) 4.4 19:54:28 10° NW 20:01:46 61° WSW 20:01:46 61° WSW
CZ-4C R/B 4.3 20:05:29 10° W 20:07:47 20° WNW 20:07:47 20° WNW
